Location: Deurze
(52.9838°N, 6.6090°E)
Time: 19:39:29
(UTC+00:00)

PAYLOAD B - Pass Details

Date: 11 March 2026
Orbit: 847 x 870 km, 99.0° (Epoch: 20 April)

Event Time Altitude Azimuth Distance (km) Brightness Sun altitude
Exits shadow 19:28:54 14° 162° (SSE) 2,203 6.0 -18.4°
Maximum altitude 19:33:42 90° 93° (E) 870 4.2 -19.0°
Drops below altitude 10° 19:39:18 10° 344° (NNW) 2,506 7.1 -19.8°
Sets 19:41:40 0° 345° (NNW) 3,444 7.9 -20.2°
